User: anonymous   Login
Location: Caltech
(34.1382°N, 118.1253°W)
Time: 21:15:47
(UTC-07:00)
Language:

ERBS - Orbit

View from above orbital plane
View from above orbital plane
View from above satellite
View from above satellite

Ground track
Ground track

The orbit data is extracted from the following two-line orbital elements,

1 15354U 84108B   15142.18152630  .00006800  00000-0  20322-3 0  9994
2 15354 057.0099 140.8108 0018961 102.9295 257.3875 15.35630874681560
Epoch (UTC): 22 May 2015 04:21:23
Eccentricity: 0.0018961
inclination: 57.0099°
perigee height: 446 km
apogee height: 472 km
right ascension of ascending node: 140.8108°
argument of perigee: 102.9295°
revolutions per day: 15.35630874
mean anomaly at epoch: 257.3875°
orbit number at epoch: 68156

The dashed part of the orbit path shows where the satellite is in the earth's shadow,  

DLR